Regional Weather Roundup
Issued by NWS Cleveland, OH

Home | Current Version | Previous Version | Graphics & Text | Print | Product List | Glossary On
Versions: 1 2 3 4 5 6 7 8 9 10 11 12 13 14 15 16 17 18 19 20 21 22 23 24 25 26 27 28 29 30 31 32 33 34 35 36 37 38 39 40 41 42 43 44 45 46 47 48 49 50
000
ASUS41 KCLE 231600
RWRCLE
OHIO REGIONAL WEATHER ROUNDUP
NATIONAL WEATHER SERVICE WILMINGTON, OH
1200 PM EDT SAT JUL 23 2016

NOTE: "FAIR" INDICATES FEW OR NO CLOUDS BELOW 12,000 FEET WITH NO
SIGNIFICANT WEATHER AND/OR OBSTRUCTIONS TO VISIBILITY.

OHZ001>008-015>018-024>027-034-035-043-044-231700-
   NORTHWEST OHIO

CITY           SKY/WX    TMP DP  RH WIND       PRES   REMARKS
DEFIANCE       FAIR      87  69  54 N3        30.00R HX  91
FINDLAY        PTSUNNY   87  70  56 SW7       29.99F HX  92
TOLEDO EXPRESS FAIR      86  72  62 CALM      29.99S HX  92
TOLEDO EXEC    FAIR      86  70  58 CALM      29.99F HX  90
LIMA           PTSUNNY   84  72  67 VRB6      30.01S
$$

OHZ009>014-019>023-028>033-038-089-231700-
   NORTHEAST OHIO

CITY           SKY/WX    TMP DP  RH WIND       PRES   REMARKS
CLE-HOPKINS    FAIR      90  72  55 VRB7      30.01F HX  97
CLE-LAKEFRONT  FAIR      82  75  79 W6        29.98F
CUY CO. ARPT   MOSUNNY   86  75  70 NW9       30.01S HX  95
LORAIN-ELYRIA  FAIR      85  74  69 N3        30.00F HX  92
ASHTABULA      FAIR      86  63  45 W6        30.00S
AKRON-CANTON   FAIR      89  70  53 NW7       30.02S HX  94
WOOSTER        NOT AVBL
MANSFIELD      FAIR      87  72  60 SW3       30.03S HX  93
YOUNGSTOWN     FAIR      87  64  46 N6        30.02S
$$

OHZ042-051>053-060>062-070>072-077>081-231700-
  SOUTHWEST OHIO

CITY           SKY/WX    TMP DP  RH WIND       PRES   REMARKS
CINC-COVINGTON FAIR      86  73  65 VRB5      30.03F HX  93
CINC-LUNKEN    FAIR      86  76  71 S6        30.02F HX  96
HAMILTON       PTSUNNY   88  72  58 CALM      30.03F HX  94
DAYTON         NOT AVBL
WRIGHT-PAT AFB NOT AVBL
DAYTON GENERAL FAIR      86  69  56 VRB3      30.03F HX  90
WILMINGTON     FAIR      85  72  65 VRB3      30.03F HX  91
$$

OHZ036-037-039>041-045>050-054>059-063>069-073>076-082>088-231700-
  CENTRAL AND SOUTHEAST OHIO

CITY           SKY/WX    TMP DP  RH WIND       PRES   REMARKS
COLUMBUS       PTSUNNY   85  71  63 SW3       30.01F HX  90
OSU AIRPORT    FAIR      88  71  57 VRB5      30.02S HX  94
BOLTON FIELD   MOSUNNY   86  72  62 CALM      30.03S HX  92
RICKENBACK AFB FAIR      84  74  70 CALM      30.01S HX  91
NEWARK         FAIR      87  71  58 VRB5      30.01F HX  93
MARION         PTSUNNY   84  70  62 CALM      30.02F
LANCASTER      FAIR      86  74  67 MISG      30.03S HX  94
ZANESVILLE     FAIR      88  72  58 SW6       30.02F HX  94
NEW PHILLY     PTSUNNY   91  71  51 SW6       30.01F HX  97
$$



USA.gov is the U.S. government's official web portal to all federal, state and local government web resources and services.